Stations météo

Publicité
Cottbus, Allemagne (10496): Température de l'air & dewpoint: 18.01.2019 11:00:00 - 24.01.2019 11:00:00 (CET)Cottbus, Allemagne (10496): Température de l'air 5cm & Température de l'air -5cm: 18.01.2019 11:00:00 - 24.01.2019 11:00:00 (CET)Cottbus, Allemagne (10496): Température de l'air -20cm & Température de l'air -100cm: 18.01.2019 11:00:00 - 24.01.2019 11:00:00 (CET)Cottbus, Allemagne (10496): Vitesse du vent & gusts: 18.01.2019 11:00:00 - 24.01.2019 11:00:00 (CET)Cottbus, Allemagne (10496): Direction du vent: 18.01.2019 11:00:00 - 24.01.2019 11:00:00 (CET)Cottbus, Allemagne (10496): reduced air pressure: 18.01.2019 11:00:00 - 24.01.2019 11:00:00 (CET)Cottbus, Allemagne (10496): visibility: 18.01.2019 11:00:00 - 24.01.2019 11:00:00 (CET)Cottbus, Allemagne (10496): Ensoleillement: 18.01.2019 11:00:00 - 24.01.2019 11:00:00 (CET)Cottbus, Allemagne (10496): Quantités de précipitations: 18.01.2019 11:00:00 - 24.01.2019 11:00:00 (CET)
Date & Time tt [°C] td [°C] tt 5cm [°C] tt -5cm [°C] tt -20cm [°C] tt -100cm [°C] ff [km/h] ff [knt] fx [km/h] fx [knt] dd ppp [hPa] vv [km] sd [min] rr [mm]
24.01.2019 11:00:00 -3,9 -8,8 -3,6 -2,1 -0,3 3,5 8 5 23 12 E 1012,4 9 0 0,0
24.01.2019 10:00:00 -4,0 -8,8 -3,8 -2,3 -0,3 3,5 9 5 25 13 E 1012,1 9 0 0,0
24.01.2019 09:00:00 -4,2 -9,1 -4,1 -2,5 -0,3 3,5 14 7 29 15 E 1011,7 9 0 0,0
24.01.2019 08:00:00 -4,1 -9,1 -4,2 -2,5 -0,3 3,5 13 7 26 14 ENE 1011,1 9 0 0,0
24.01.2019 07:00:00 -3,9 -8,7 -4,0 -2,4 -0,3 3,5 11 6 28 15 ENE 1010,7 9 0 0,0
24.01.2019 06:00:00 -3,5 -8,0 -3,6 -2,3 -0,3 3,5 11 6 29 16 E 1010,0 8 0 0,0
24.01.2019 05:00:00 -3,3 -8,0 -3,4 -2,2 -0,3 3,5 13 7 26 14 E 1009,6 9 0 0,0
24.01.2019 04:00:00 -3,0 -7,4 -3,2 -2,2 -0,3 3,5 9 5 32 17 ENE 1009,4 10 0 0,0
24.01.2019 03:00:00 -2,9 -7,8 -3,1 -2,2 -0,3 3,5 12 7 29 16 E 1009,2 12 0 0,0
24.01.2019 02:00:00 -2,8 -7,5 -3,0 -2,2 -0,3 3,6 9 5 32 18 E 1008,9 12 0 0,0
24.01.2019 01:00:00 -2,8 -7,2 -3,0 -2,2 -0,3 3,6 10 5 35 19 E 1008,7 11 0 0,0
24.01.2019 00:00:00 -2,8 -7,5 -3,0 -2,3 -0,3 3,6 14 7 35 19 E 1008,1 12 0 0,0
23.01.2019 23:00:00 -2,8 -7,7 -2,9 -2,3 -0,3 3,6 20 11 37 20 E 1007,7 12 0 0,0
23.01.2019 22:00:00 -3,0 -7,5 -3,2 -2,5 -0,3 3,6 12 7 33 18 E 1007,4 11 0 0,0
23.01.2019 21:00:00 -3,3 -7,7 -3,5 -2,6 -0,3 3,6 16 9 32 17 E 1006,9 10 0 0,0
23.01.2019 20:00:00 -3,8 -7,6 -4,0 -2,7 -0,3 3,6 14 8 38 20 E 1006,8 8 0 0,0
23.01.2019 19:00:00 -4,5 -7,7 -4,5 -2,9 -0,3 3,6 13 7 36 20 E 1006,5 8 0 0,0
23.01.2019 18:00:00 -5,4 -8,4 -5,3 -3,0 -0,3 3,6 14 7 37 20 E 1006,6 7 0 0,0
23.01.2019 17:00:00 -6,1 -9,3 -6,0 -2,9 -0,3 3,6 16 8 34 19 E 1006,4 6 0 0,0
23.01.2019 16:00:00 -6,4 -9,8 -6,1 -2,6 -0,3 3,6 19 11 38 21 E 1006,0 5 0 0,0
23.01.2019 15:00:00 -6,1 -9,0 -5,6 -2,2 -0,3 3,7 16 9 32 17 E 1005,5 3,8 0 0,0
23.01.2019 14:00:00 -5,9 -9,4 -5,1 -2,0 -0,3 3,7 19 10 34 18 E 1005,3 5 1 0,0
23.01.2019 13:00:00 -6,2 -9,3 -5,2 -2,2 -0,3 3,7 17 9 32 18 E 1005,3 2,8 0 0,0
23.01.2019 12:00:00 -6,2 -9,0 -5,4 -2,5 -0,3 3,7 16 8 29 15 E 1005,4 2,4 0 0,0
23.01.2019 11:00:00 -6,5 -9,3 -5,9 -2,9 -0,4 3,7 13 7 28 15 E 1005,5 2,0 0 0,0
23.01.2019 10:00:00 -6,7 -8,8 -6,1 -3,4 -0,4 3,7 12 6 25 13 E 1005,4 1,7 0 0,0
23.01.2019 09:00:00 -6,6 -8,3 -6,3 -3,9 -0,4 3,7 11 6 26 14 E 1005,3 1,6 0 0,0
23.01.2019 08:00:00 -6,7 -8,3 -6,8 -4,4 -0,3 3,7 12 6 22 12 E 1005,1 1,6 0 0,0
23.01.2019 07:00:00 -6,7 -8,3 -7,4 -4,5 -0,3 3,7 11 6 26 14 E 1005,2 1,6 0 0,0
23.01.2019 06:00:00 -6,7 -8,3 -7,6 -4,4 -0,2 3,7 14 8 29 16 E 1005,6 2,1 0 0,0
23.01.2019 05:00:00 -6,9 -8,6 -7,7 -4,1 -0,2 3,7 12 6 27 15 E 1005,8 2,6 0 0,0
23.01.2019 04:00:00 -6,6 -8,6 -7,0 -3,5 -0,2 3,8 16 9 29 16 E 1006,3 3,2 0 0,0
23.01.2019 03:00:00 -6,1 -7,8 -5,9 -3,5 -0,2 3,8 10 5 29 16 E 1006,7 3,1 0 0,0
23.01.2019 02:00:00 -6,2 -7,8 -6,2 -3,7 -0,2 3,8 15 8 32 18 E 1007,1 3,0 0 0,0
23.01.2019 01:00:00 -6,0 -7,4 -6,2 -3,8 -0,1 3,8 12 6 25 13 E 1007,5 3,0 0 0,0
23.01.2019 00:00:00 -6,0 -7,4 -6,3 -3,9 -0,1 3,8 14 7 26 14 E 1008,1 3,0 0 0,0
22.01.2019 23:00:00 -5,9 -7,2 -6,6 -4,2 0,0 3,8 13 7 30 16 E 1008,4 2,7 0 0,0
22.01.2019 22:00:00 -5,9 -7,7 -7,3 -4,1 0,0 3,8 13 7 25 14 E 1008,9 3,8 0 0,0
22.01.2019 21:00:00 -4,7 -7,6 -6,2 -3,7 0,0 3,8 11 6 20 11 E 1009,0 7 0 0,0
22.01.2019 20:00:00 -3,5 -7,4 -5,2 -3,3 0,0 3,8 8 4 16 9 ESE 1009,2 8 0 0,0
22.01.2019 19:00:00 -2,7 -7,2 -4,9 -2,7 0,0 3,8 7 4 16 8 ESE 1009,5 8 0 0,0
22.01.2019 18:00:00 -2,1 -7,1 -4,0 -1,8 0,0 3,8 8 4 14 8 SE 1010,0 9 0 0,0
22.01.2019 17:00:00 -1,5 -6,1 -4,1 -0,5 0,0 3,9 7 4 14 8 SE 1010,4 8 0 0,0
22.01.2019 16:00:00 -0,5 -5,8 -1,6 -0,2 0,0 3,9 9 5 18 10 SE 1010,9 10 46 0,0
22.01.2019 15:00:00 0,0 -5,4 0,3 -0,3 0,0 3,9 10 5 17 9 S 1011,5 9 60 0,0
22.01.2019 14:00:00 -0,4 -5,7 0,9 -0,4 0,0 3,9 9 5 14 8 SSE 1012,4 10 60 0,0
22.01.2019 13:00:00 -0,7 -5,7 0,8 -0,6 0,0 3,9 7 4 14 7 ESE 1013,3 9 60 0,0
22.01.2019 12:00:00 -1,2 -6,1 -0,2 -1,1 0,0 3,9 5 3 10 6 SSE 1014,2 7 60 0,0
22.01.2019 11:00:00 -2,2 -6,3 -1,6 -2,4 0,0 3,9 4 2 11 6 S 1014,7 6 60 0,0
22.01.2019 10:00:00 -4,5 -7,5 -6,0 -4,3 0,0 3,9 6 3 11 6 S 1015,2 6 59 0,0
22.01.2019 09:00:00 -6,5 -8,3 -8,7 -5,1 0,1 3,9 5 3 11 6 S 1015,5 4,7 0 0,0
22.01.2019 08:00:00 -9,3 -10,6 -11,3 -5,1 0,1 3,9 6 3 9 5 SSE 1015,8 4,2 0 0,0
22.01.2019 07:00:00 -9,2 -10,5 -11,3 -4,9 0,1 4,0 6 4 30 16 SSW 1016,0 4,0 0 0,0
22.01.2019 06:00:00 -8,6 -9,9 -10,8 -4,7 0,2 4,0 2 1 8 4 SSE 1016,5 3,8 0 0,0
22.01.2019 05:00:00 -8,1 -9,3 -10,4 -4,5 0,2 4,0 5 3 13 7 S 1016,8 3,6 0 0,0
22.01.2019 04:00:00 -6,7 -8,4 -8,5 -4,3 0,2 4,0 8 4 12 6 S 1017,2 4,1 0 0,0
22.01.2019 03:00:00 -6,8 -8,1 -9,2 -4,0 0,2 4,0 7 4 11 6 S 1018,0 3,7 0 0,0
22.01.2019 02:00:00 -6,3 -7,5 -9,0 -3,5 0,3 4,0 5 3 11 6 SSW 1018,5 3,5 0 0,0
22.01.2019 01:00:00 -5,9 -7,2 -7,2 -2,8 0,3 4,0 5 3 11 6 SSW 1019,0 4,3 0 0,0
22.01.2019 00:00:00 -5,4 -6,4 -5,8 -2,4 0,3 4,0 3 2 13 7 SW 1019,6 4,0 0 0,0
21.01.2019 23:00:00 -5,1 -6,1 -5,2 -2,2 0,3 4,0 8 4 16 9 SSW 1019,9 3,6 0 0,0
21.01.2019 22:00:00 -4,9 -6,0 -4,9 -1,9 0,3 4,0 10 5 16 9 SSW 1020,4 3,5 0 0,0
21.01.2019 21:00:00 -4,6 -5,9 -4,4 -1,8 0,3 4,1 6 4 17 9 SW 1020,9 3,5 0 0,0
21.01.2019 20:00:00 -4,8 -5,9 -4,6 -1,7 0,3 4,1 10 5 17 9 SSW 1020,5 3,9 0 0,0
21.01.2019 19:00:00 -4,9 -6,2 -4,7 -1,6 0,3 4,1 8 4 15 8 S 1021,1 3,7 0 0,0
21.01.2019 18:00:00 -4,6 -5,8 -4,3 -1,4 0,3 4,1 5 3 19 10 S 1021,4 2,3 0 0,0
21.01.2019 17:00:00 -4,4 -5,6 -4,2 -1,1 0,3 4,1 7 4 12 7 SSW 1021,8 3,8 0 0,0
21.01.2019 16:00:00 -4,6 -5,8 -4,2 -0,8 0,3 4,1 5 3 16 9 SW 1022,1 4,1 0 0,0
21.01.2019 15:00:00 -4,4 -5,8 -3,8 -0,6 0,3 4,1 8 4 16 8 SW 1022,3 4,6 0 0,0
21.01.2019 14:00:00 -4,4 -5,5 -3,7 -0,6 0,3 4,1 6 4 14 8 SW 1022,7 4,6 0 0,0
21.01.2019 13:00:00 -4,2 -5,4 -3,4 -0,7 0,3 4,1 6 3 18 10 SW 1023,5 4,2 0 0,0
21.01.2019 12:00:00 -4,0 -5,0 -3,3 -0,9 0,3 4,2 8 5 16 9 WSW 1024,0 4,1 0 0,0
21.01.2019 11:00:00 -4,1 -5,0 -3,4 -1,2 0,3 4,2 8 5 16 8 WSW 1024,4 4,0 0 0,0
21.01.2019 10:00:00 -4,6 -5,6 -4,1 -1,6 0,3 4,2 8 4 18 10 WSW 1024,4 4,3 0 0,0
21.01.2019 09:00:00 -4,7 -5,6 -4,3 -1,7 0,3 4,2 9 5 18 10 WSW 1024,4 4,5 0 0,0
21.01.2019 08:00:00 -4,9 -5,7 -4,5 -1,8 0,3 4,2 5 3 15 8 W 1024,2 3,5 0 0,0
21.01.2019 07:00:00 -5,0 -6,0 -4,6 -1,7 0,3 4,2 7 4 13 7 WSW 1024,0 1,5 0 0,0
21.01.2019 06:00:00 -4,8 -5,6 -4,4 -1,7 0,4 4,2 4 2 13 7 W 1024,0 2,0 0 0,0
21.01.2019 05:00:00 -4,7 -5,0 -4,3 -1,6 0,4 4,2 6 3 14 8 WSW 1023,9 0,7 0 0,0
21.01.2019 04:00:00 -4,4 -5,1 -4,1 -1,5 0,4 4,2 6 3 9 5 SW 1024,1 0,6 0 0,0
21.01.2019 03:00:00 -4,4 -5,3 -4,0 -1,5 0,4 4,3 6 3 8 5 WSW 1024,2 0,6 0 0,0
21.01.2019 02:00:00 -4,4 -5,0 -4,1 -1,5 0,4 4,3 4 2 8 4 SW 1024,1 0,6 0 0,0
21.01.2019 01:00:00 -4,3 -4,8 -4,0 -1,5 0,4 4,3 5 3 12 6 W 1024,0 0,4 0 0,0
21.01.2019 00:00:00 -4,0 -4,3 -3,7 -1,5 0,4 4,3 5 3 9 5 NW 1024,0 0,4 0 0,0
20.01.2019 23:00:00 -3,9 -4,7 -3,6 -1,5 0,4 4,3 4 2 12 7 NW 1023,7 0,3 0 0,0
20.01.2019 22:00:00 -3,7 -4,4 -3,4 -1,6 0,4 4,3 4 2 10 5 NNW 1023,3 1,2 0 0,0
20.01.2019 21:00:00 -3,6 -4,1 -3,4 -1,9 0,4 4,3 6 4 15 8 ENE 1022,5 0,8 0 0,0
20.01.2019 20:00:00 -3,8 -4,6 -3,7 -2,3 0,4 4,3 8 5 13 7 N 1022,0 0,9 0 0,0
20.01.2019 19:00:00 -4,3 -5,4 -7,5 -1,8 0,4 4,4 6 3 10 6 NNW 1021,4 3,5 0 0,0
20.01.2019 18:00:00 -3,3 -4,7 -7,0 -0,3 0,4 4,4 3 2 7 4 NNE 1020,7 3,9 0 0,0
20.01.2019 17:00:00 -2,0 -4,0 -4,7 -0,1 0,5 4,4 4 2 7 4 NE 1020,1 5 0 0,0
20.01.2019 16:00:00 -0,1 -3,7 -2,9 -0,1 0,5 4,4 3 2 10 6 NNE 1019,8 8 45 0,0
20.01.2019 15:00:00 0,7 -3,6 1,3 -0,2 0,5 4,4 5 3 11 6 NE 1019,4 9 60 0,0
20.01.2019 14:00:00 0,6 -3,8 2,3 -0,3 0,5 4,4 7 4 13 7 N 1019,3 9 60 0,0
20.01.2019 13:00:00 -0,3 -4,2 1,1 -0,4 0,5 4,4 2 1 11 6 ENE 1019,6 7 60 0,0
20.01.2019 12:00:00 -1,7 -4,8 -0,7 -0,8 0,5 4,4 5 3 12 7 E 1019,7 4,8 60 0,0
20.01.2019 11:00:00 -3,0 -5,5 -1,9 -1,9 0,5 4,4 4 2 13 7 E 1019,6 4,0 60 0,0
20.01.2019 10:00:00 -4,9 -6,6 -6,2 -3,8 0,5 4,4 4 2 13 7 E 1019,4 3,6 56 0,0
20.01.2019 09:00:00 -7,7 -8,9 -9,7 -4,4 0,6 4,5 3 2 8 5 E 1019,1 4,7 0 0,0
20.01.2019 08:00:00 -8,6 -9,8 -10,5 -4,4 0,6 4,5 3 2 9 5 E 1018,6 5 0 0,0
20.01.2019 07:00:00 -7,4 -8,7 -10,1 -4,3 0,6 4,5 3 2 10 5 NE 1018,4 4,1 0 0,0
20.01.2019 06:00:00 -7,2 -8,3 -9,9 -4,1 0,6 4,5 5 3 10 5 NE 1018,2 4,2 0 0,0
20.01.2019 05:00:00 -7,4 -8,5 -9,6 -4,0 0,7 4,5 3 1 10 6 ENE 1018,3 5 0 0,0
20.01.2019 04:00:00 -6,8 -7,8 -9,6 -3,8 0,7 4,5 4 2 10 5 E 1018,4 4,7 0 0,0
20.01.2019 03:00:00 -6,1 -7,0 -9,0 -3,5 0,8 4,5 4 2 11 6 ENE 1018,5 4,5 0 0,0
20.01.2019 02:00:00 -5,5 -6,5 -8,7 -3,2 0,8 4,5 5 3 11 6 E 1018,6 4,9 0 0,0
20.01.2019 01:00:00 -4,9 -6,0 -8,5 -2,9 0,9 4,5 4 2 11 6 E 1018,9 5 0 0,0
20.01.2019 00:00:00 -5,1 -6,0 -7,9 -2,5 0,9 4,6 4 2 10 6 ENE 1019,2 6 0 0,0
19.01.2019 23:00:00 -4,5 -5,4 -7,3 -2,0 1,0 4,6 5 3 10 5 ENE 1019,3 7 0 0,0
19.01.2019 22:00:00 -4,1 -5,1 -7,4 -1,4 1,0 4,6 4 2 11 6 E 1019,4 8 0 0,0
19.01.2019 21:00:00 -3,6 -4,6 -6,6 -0,7 1,1 4,6 5 3 10 6 E 1019,4 6 0 0,0
19.01.2019 20:00:00 -3,4 -4,4 -6,2 -0,1 1,1 4,6 4 2 10 5 E 1019,6 8 0 0,0
19.01.2019 19:00:00 -3,0 -4,1 -5,5 -0,1 1,1 4,6 4 2 10 5 E 1019,6 8 0 0,0
19.01.2019 18:00:00 -2,0 -3,7 -4,6 -0,1 1,1 4,6 3 2 10 5 NE 1019,7 12 0 0,0
19.01.2019 17:00:00 -1,4 -3,7 -3,8 -0,1 1,1 4,6 4 2 10 5 E 1019,8 18 0 0,0
19.01.2019 16:00:00 1,2 -3,8 -1,9 -0,1 1,1 4,6 2 1 8 4 WNW 1019,9 27 37 0,0
19.01.2019 15:00:00 2,2 -3,5 1,6 -0,1 1,1 4,6 4 2 10 5 SW 1020,1 19 53 0,0
19.01.2019 14:00:00 2,2 -3,6 2,5 -0,1 1,1 4,6 4 2 12 6 SSW 1020,5 24 60 0,0
19.01.2019 13:00:00 2,0 -3,5 2,7 -0,2 1,1 4,6 6 4 13 7 SSW 1020,8 20 60 0,0
19.01.2019 12:00:00 1,5 -3,7 2,5 -0,2 1,1 4,7 6 4 11 6 S 1021,5 20 60 0,0
19.01.2019 11:00:00 0,2 -4,9 1,5 -0,4 1,2 4,7 5 3 9 5 SW 1021,7 22 60 0,0
19.01.2019 10:00:00 -1,6 -5,2 -3,1 -1,0 1,2 4,7 5 3 9 5 SSW 1022,0 24 41 0,0
19.01.2019 09:00:00 -4,3 -5,5 -5,8 -1,2 1,2 4,7 5 3 8 4 SSW 1021,8 17 0 0,0
19.01.2019 08:00:00 -4,8 -5,7 -7,1 -1,0 1,3 4,7 4 2 7 4 SW 1021,4 17 0 0,0
19.01.2019 07:00:00 -3,6 -4,8 -4,8 -0,6 1,3 4,7 3 2 9 5 WSW 1021,3 20 0 0,0
19.01.2019 06:00:00 -2,4 -4,4 -3,4 -0,3 1,3 4,7 6 4 10 5 SW 1021,2 27 0 0,0
19.01.2019 05:00:00 -2,4 -4,5 -3,1 -0,3 1,4 4,7 8 4 10 5 SW 1021,2 32 0 0,0
19.01.2019 04:00:00 -2,6 -4,7 -4,0 -0,2 1,4 4,7 8 4 11 6 SW 1021,1 39 0 0,0
19.01.2019 03:00:00 -3,5 -5,0 -5,6 -0,1 1,5 4,7 8 4 10 5 SW 1021,2 32 0 0,0
19.01.2019 02:00:00 -3,4 -5,0 -6,2 0,0 1,5 4,7 6 3 14 8 SW 1021,1 39 0 0,0
19.01.2019 01:00:00 -1,8 -4,8 -4,2 0,1 1,5 4,7 10 5 14 8 WSW 1021,0 45 0 0,0
19.01.2019 00:00:00 -0,3 -4,2 -0,8 0,1 1,5 4,8 10 5 21 11 SW 1021,1 52 0 0,0
18.01.2019 23:00:00 -0,2 -4,1 -0,6 0,2 1,6 4,8 12 6 17 9 SW 1020,9 45 0 0,0
18.01.2019 22:00:00 -0,6 -3,6 -0,8 0,2 1,6 4,8 10 6 19 11 SW 1020,7 29 0 0,1
18.01.2019 21:00:00 -1,0 -4,3 -1,2 0,2 1,6 4,8 11 6 20 11 SW 1020,4 2,3 0 0,0
18.01.2019 20:00:00 -1,2 -4,8 -2,1 0,2 1,7 4,8 10 5 14 8 SW 1020,1 27 0 0,0
18.01.2019 19:00:00 -1,6 -5,1 -3,1 0,2 1,7 4,8 11 6 16 9 SW 1020,1 42 0 0,0
18.01.2019 18:00:00 -1,6 -5,3 -3,5 0,3 1,8 4,8 9 5 16 9 SW 1020,1 33 0 0,0
18.01.2019 17:00:00 -0,8 -5,4 -2,9 0,3 1,8 4,8 10 5 23 12 SW 1019,7 62 0 0,0
18.01.2019 16:00:00 0,7 -5,4 -0,6 0,5 1,9 4,8 15 8 26 14 WSW 1019,5 70 47 0,0
18.01.2019 15:00:00 1,4 -5,6 2,0 1,3 1,9 4,8 14 8 34 19 W 1018,9 43 57 0,0
18.01.2019 14:00:00 0,8 -5,6 0,8 0,9 1,9 4,8 11 6 31 17 WNW 1018,9 70 22 0,0
18.01.2019 13:00:00 0,1 -5,4 0,3 0,4 1,9 4,8 11 6 31 17 WNW 1018,4 70 19 0,0
18.01.2019 12:00:00 0,3 -5,8 1,2 0,5 2,0 4,8 14 7 27 15 WNW 1018,0 62 25 0,0
18.01.2019 11:00:00 -0,4 -5,1 -0,7 0,4 2,0 4,8 12 7 30 16 WNW 1017,3 70 0 0,0

tt = Température de l'air
td = dewpoint
tt 5cm = Température de l'air 5cm
tt -5cm = Température de l'air -5cm
tt -20cm = Température de l'air -20cm
tt -100cm = Température de l'air -100cm
ff = Vitesse du vent
fx = gusts
dd = Direction du vent
ppp = reduced air pressure
vv = visibility
sd = Ensoleillement
rr = Quantités de précipitations

stations d'obs. à proximité